Location: Kermapucano
(48.0667°N, 3.3000°W)
Time: 19:50:10
(UTC+00:00)

Cosmos 2181 Rocket - Pass Details

Date: 29 November 2020
Orbit: 951 x 1015 km, 82.9° (Epoch: 27 January)

Event Time Altitude Azimuth Distance (km) Brightness Sun altitude
Rises 04:55:06 0° 350° (N) 3,689 6.9 -26.8°
Reaches altitude 10° 04:57:38 10° 351° (N) 2,729 6.2 -26.4°
Maximum altitude 05:03:53 88° 82° (E) 970 3.9 -25.3°
Drops below altitude 10° 05:10:02 10° 172° (S) 2,677 6.4 -24.3°
Sets 05:12:30 0° 173° (S) 3,615 7.2 -23.9°
